Retour au catalogue

NOAA 16 DEB

ActifPO
NORAD 41207·DEBRIS·🇺🇸 United States

Lancé Sep 21, 2000 depuis Vandenberg Space Force Base

Loading…

Prochains Passages (prochaines 24 heures)

TLE

FraisSource: Space-Track

Époque: Sep 14, 2026, 05:39 UTC

1 41207U 00055DL  26257.23576132  .00018020  00000-0  20668-2 0  9990
2 41207  98.8942 173.2365 0029146 340.7292  19.2815 14.85649355565701

Suivez NOAA 16 DEB en temps réel avec AllMySat

Download on the App Store